Flag for Germany Weather past 2 weeks in Neustadt an der Weinstraße, Rhineland-Palatinate, Germany

Now
59 °F

Passing clouds.


Feels Like: 58 °F
Forecast: 55 / 81 °F
Wind: 7 mph from North

Location: Baden Wurttemberg - Neuostheim

Current Time: Jul 31, 2015 at 10:15:14 AM

Latest Report: Jul 31, 2015 at 9:20 AM


Visibility: N/A

Pressure: 30.12 "Hg

Humidity: 72%

Dew point: 50 °F

Location of Neustadt an der WeinstraßeLocation

Historic Weather in Neustadt an der Weinstraße — Graph

°F

Neustadt an der Weinstraße temperature yesterday

Maximum temperature yesterday: 73 °F (at 5:20 PM)
Minimum temperature yesterday: 50 °F (at 5:50 AM)
Average temperature yesterday: 64 °F

Past Weeks' High & Low Weather Summary

 TemperatureHumidityPressure
High95 °F (Jul 17, 3:50 PM)100% (Jul 19, 2:50 PM)30.12 "Hg (Jul 19, 2:50 PM)
Low50 °F (Jul 30, 5:50 AM)19% (Jul 16, 7:50 PM)29.65 "Hg (Jul 24, 7:50 PM)
Average75 °F53%29.91 "Hg
* Reported Jul 16 8:20 AM — Jul 31 8:50 AM, Neustadt an der Weinstraße, Weather by CustomWeather, © 2015

Note: Actual official high and low records may vary slightly from our data, if they occured in-between our weather recording intervals... More about our weather records

Advertising

Neustadt an der Weinstraße weather history for previous 24 hours

 ConditionsComfort  
Time TempWeatherWind HumidityBarometerVisibility
8:50 AM
Fri, Jul 31
57 °FPassing clouds.8 mph72%30.12 "HgN/A
8:20 AM55 °FSunny.8 mph77%30.12 "Hg10 mi
7:50 AM55 °FPassing clouds.7 mph77%30.12 "HgN/A
7:20 AM54 °FSunny.5 mph82%30.12 "Hg10 mi
6:50 AM52 °FClear.6 mph88%30.12 "Hg10 mi
6:20 AM52 °FClear.5 mph88%30.09 "Hg10 mi
5:50 AM52 °FClear.3 mph88%30.09 "Hg10 mi
8:50 PM
Thu, Jul 30
63 °FPassing clouds.9 mph56%30.04 "HgN/A
8:20 PM64 °FPassing clouds.13 mph52%30.04 "HgN/A
7:50 PM66 °FMostly cloudy.14 mph46%30.01 "HgN/A
7:20 PM68 °FPassing clouds.14 mph40%29.98 "HgN/A
6:50 PM72 °FPassing clouds.10 mph27%29.98 "HgN/A
6:20 PM72 °FPassing clouds.9 mph25%29.98 "HgN/A
5:50 PM73 °FPassing clouds.9 mph23%29.98 "HgN/A
5:20 PM73 °FPassing clouds.10 mph25%29.98 "HgN/A
4:50 PM72 °FPassing clouds.9 mph27%29.98 "HgN/A
4:20 PM72 °FPassing clouds.7 mph31%29.98 "HgN/A
3:50 PM72 °FPassing clouds.9 mph31%29.98 "HgN/A
3:20 PM70 °FPassing clouds.8 mph33%29.98 "HgN/A
2:50 PM72 °FSunny.5 mph36%29.98 "Hg10 mi
2:20 PM68 °FPassing clouds.9 mph43%30.01 "HgN/A
1:50 PM68 °FPassing clouds.7 mph46%30.01 "HgN/A
1:20 PM68 °FPassing clouds.7 mph46%30.01 "HgN/A
12:50 PM66 °FPartly sunny.6 mph49%30.01 "HgN/A
12:20 PM64 °FPartly sunny.8 mph52%30.01 "HgN/A
11:50 AM66 °FPassing clouds.6 mph46%30.01 "HgN/A
11:20 AM64 °FPartly sunny.6 mph52%30.01 "HgN/A
10:20 AM61 °FPassing clouds.6 mph59%30.01 "HgN/A
Weather by CustomWeather, © 2015

See weather overviewHow to use our weather pages